Weather History for Faro, Portugal

Change the Weather History Date:

Wednesday, March 20, 2013

  Actual Average Record
Temperature  
Mean Temperature 54 °F -  
Max Temperature 62 °F 66 °F 75 °F (2009)
Min Temperature 46 °F 51 °F 46 °F (2007)
Degree Days  
Heating Degree Days 11    
Growing Degree Days 4 (Base 50)    
Moisture  
Dew Point 48 °F    
Average Humidity 77    
Maximum Humidity 93    
Minimum Humidity 52    
Precipitation  
Precipitation 0.00 in 0.05 in - ()
Sea Level Pressure  
Sea Level Pressure 30.02 in    
Wind  
Wind Speed 8 mph ()    
Max Wind Speed 14 mph    
Max Gust Speed -    
Visibility 7.5 miles    
Events      
Averages and records for this station are not official NWS values.
T = Trace of Precipitation, MM = Missing Value Source: Averaged Metar Reports

Daily Weather History Graph

Daily Weather History Graph

Search for Another Location

Airport:

Trip Planner

Search our weather history database for the weather conditions in past years. The results will help you decide how hot, cold, wet, or windy it might be!

Date:

Astronomy

Mar. 20, 2013 Rise Set
Actual Time 6:35 AM WET 6:43 PM WET
Civil Twilight 6:09 AM WET 7:09 PM WET
Nautical Twilight 5:39 AM WET 7:39 PM WET
Astronomical Twilight 5:08 AM WET 8:10 PM WET
Moon 12:14 PM WET (3/20) 1:57 AM WET (3/20)
Length of Visible Light 13h 00m
Length of Day
12h 08m
First Quarter, 57% of the Moon is Illuminated
Mar 20
First Quarter
Mar 27
Full
Apr 3
Last Quarter
Apr 10
New
Apr 18
First Quarter

Hourly Weather History & Observations

Time (WET) Temp. Windchill Dew Point Humidity Pressure Visibility Wind Dir Wind Speed Gust Speed Precip Events Conditions
12:00 AM 51 °F - 43 °F 66% 29.83 in 9 mi WNW 11.2 mph - -  
12:00 AM 51.8 °F - 44.6 °F 76% 29.80 in - WNW 12.7 mph - N/A   Clear
12:30 AM 51.8 °F - 44.6 °F 76% 29.80 in - WNW 10.4 mph - N/A   Clear
1:00 AM 51.8 °F - 44.6 °F 76% 29.83 in - WNW 11.5 mph - N/A   Clear
1:30 AM 51.8 °F - 44.6 °F 76% 29.83 in - WNW 11.5 mph - N/A   Clear
2:00 AM 50.0 °F - 44.6 °F 82% 29.83 in - NW 6.9 mph - N/A   Clear
2:30 AM 50.0 °F - 44.6 °F 82% 29.86 in 6.2 mi NW 8.1 mph - N/A   Partly Cloudy
3:00 AM 49 °F - 43 °F 74% 29.88 in 9 mi WNW 4.5 mph - -   Scattered Clouds
3:00 AM 50.0 °F - 44.6 °F 82% 29.86 in 6.2 mi WNW 5.8 mph - N/A   Partly Cloudy
3:30 AM 50.0 °F - 44.6 °F 82% 29.86 in 6.2 mi WNW 5.8 mph - N/A   Partly Cloudy
4:00 AM 50.0 °F - 44.6 °F 82% 29.89 in 6.2 mi WNW 6.9 mph - N/A   Partly Cloudy
4:30 AM 48.2 °F - 44.6 °F 87% 29.92 in 6.2 mi WNW 6.9 mph - N/A   Partly Cloudy
5:00 AM 48.2 °F - 44.6 °F 87% 29.92 in - NW 5.8 mph - N/A   Clear
5:30 AM 48.2 °F - 44.6 °F 87% 29.95 in - NW 5.8 mph - N/A   Clear
6:00 AM 48 °F - 43 °F 77% 29.98 in - NW 4.5 mph - -  
6:00 AM 46.4 °F 43.5 °F 44.6 °F 93% 29.98 in - WNW 5.8 mph - N/A   Clear
6:30 AM 46.4 °F 43.5 °F 44.6 °F 93% 29.98 in - WNW 5.8 mph - N/A   Clear
7:00 AM 48.2 °F - 44.6 °F 87% 29.98 in - NW 6.9 mph - N/A   Clear
7:30 AM 48.2 °F - 46.4 °F 93% 30.01 in - NNW 4.6 mph - N/A   Clear
8:00 AM 50.0 °F - 46.4 °F 87% 30.01 in - WNW 3.5 mph - N/A   Clear
8:30 AM 53.6 °F - 48.2 °F 82% 30.04 in - NW 5.8 mph - N/A   Clear
9:00 AM 56 °F - 47 °F 63% 30.06 in 9 mi WNW 4.5 mph - -  
9:00 AM 55.4 °F - 48.2 °F 77% 30.04 in - WNW 6.9 mph - N/A   Clear
9:30 AM 57.2 °F - 48.2 °F 72% 30.04 in - WNW 6.9 mph - N/A   Clear
10:00 AM 57.2 °F - 48.2 °F 72% 30.06 in 6.2 mi WSW 8.1 mph - N/A   Partly Cloudy
10:30 AM 57.2 °F - 50.0 °F 77% 30.06 in 6.2 mi WSW 8.1 mph - N/A   Partly Cloudy
11:00 AM 59.0 °F - 48.2 °F 67% 30.09 in 6.2 mi WSW 9.2 mph - N/A   Partly Cloudy
11:30 AM 59.0 °F - 50.0 °F 72% 30.09 in - WSW 10.4 mph - N/A   Clear
12:00 PM 60 °F - 49 °F 59% 30.11 in 9 mi SW 11.2 mph - -   Scattered Clouds
12:00 PM 59.0 °F - 50.0 °F 72% 30.09 in - SW 11.5 mph - N/A   Clear
12:30 PM 60.8 °F - 50.0 °F 68% 30.09 in - SW 11.5 mph - N/A   Clear
1:00 PM 60.8 °F - 50.0 °F 68% 30.09 in - SW 12.7 mph - N/A   Clear
1:30 PM 60.8 °F - 51.8 °F 72% 30.09 in - WSW 12.7 mph - N/A   Clear
2:00 PM 60.8 °F - 51.8 °F 72% 30.09 in - SW 11.5 mph - N/A   Clear
2:30 PM 60.8 °F - 50.0 °F 68% 30.09 in - WSW 12.7 mph - N/A   Clear
3:00 PM 61 °F - 48 °F 52% 30.10 in 9 mi WSW 13.4 mph - -   Partly Cloudy
3:00 PM 60.8 °F - 51.8 °F 72% 30.09 in - WSW 13.8 mph - N/A   Clear
3:30 PM 60.8 °F - 50.0 °F 68% 30.06 in - WSW 12.7 mph - N/A   Clear
4:00 PM 60.8 °F - 51.8 °F 72% 30.06 in - WSW 13.8 mph - N/A   Clear
4:30 PM 60.8 °F - 50.0 °F 68% 30.06 in - WSW 12.7 mph - N/A   Clear
5:00 PM 60.8 °F - 50.0 °F 68% 30.06 in - WSW 12.7 mph - N/A   Clear
5:30 PM 59.0 °F - 50.0 °F 72% 30.09 in - WSW 11.5 mph - N/A   Clear
6:00 PM 60 °F - 49 °F 59% 30.12 in 9 mi WSW 8.9 mph - -   Clear
6:00 PM 59.0 °F - 50.0 °F 72% 30.09 in - WSW 11.5 mph - N/A   Clear
6:30 PM 59.0 °F - 50.0 °F 72% 30.09 in - West 9.2 mph - N/A   Clear
7:00 PM 57.2 °F - 50.0 °F 77% 30.09 in - West 6.9 mph - N/A   Clear
7:30 PM 55.4 °F - 50.0 °F 82% 30.09 in - West 8.1 mph - N/A   Clear
8:00 PM 55.4 °F - 50.0 °F 82% 30.12 in - West 6.9 mph - N/A   Clear
8:30 PM 55.4 °F - 50.0 °F 82% 30.12 in - West 4.6 mph - N/A   Clear
9:00 PM 56 °F - 48 °F 68% 30.15 in 9 mi WNW 2.2 mph - -   Clear
9:00 PM 55.4 °F - 50.0 °F 82% 30.12 in - WNW 3.5 mph - N/A   Clear
9:30 PM 55.4 °F - 50.0 °F 82% 30.12 in - North 3.5 mph - N/A   Clear
10:00 PM 53.6 °F - 50.0 °F 88% 30.12 in - NNE 5.8 mph - N/A   Clear
10:30 PM 53.6 °F - 50.0 °F 88% 30.12 in - NNE 5.8 mph - N/A   Clear
11:00 PM 53.6 °F - 50.0 °F 88% 30.12 in - NNE 4.6 mph - N/A   Clear
11:30 PM 51.8 °F - 48.2 °F 88% 30.12 in - NNE 5.8 mph - N/A   Clear